DW7783 Albolote (Granada) ES current weather conditions

sailwx.info

Wind from 002 at 3 knots

Air temperature 17.2° C
Dewpoint 8.6° C

Last reported at 2018-Nov-17 16:02 UTC.
Time now 2018-Nov-17 16:57 UTC

Location: N 37°19' W 003°39'.
View on Google Maps.

See reports from other nearby stations

  
Tides and Currents Weather Stations Pressure Air Temp Water Temp Dewpoint Dewpoint Depression Visibility Wind Speed Wind Dir Waves Ship Positions
date/time (UTC)wind fromknots sea level pressurealtimeterstation pressurevisibilityair tempwater tempwave heightnotes
2018-Nov-17 16:02 002 3 17.2
2018-Nov-17 15:46 003 1 17.8
2018-Nov-17 15:31 003 1 17.8
2018-Nov-17 15:16 003 2 17.8
2018-Nov-17 15:01 003 3 18.3
2018-Nov-17 14:46 003 3 17.8
2018-Nov-17 14:30 003 4 18.3
2018-Nov-17 14:15 007 2 17.8
2018-Nov-17 14:01 007 3 17.8
2018-Nov-17 13:46 007 5 18.3
2018-Nov-17 13:30 017 2 18.3
2018-Nov-17 13:16 017 5 18.9
2018-Nov-17 13:00 034 4 18.3
2018-Nov-17 12:45 036 2 18.3
2018-Nov-17 12:30 036 3 17.8
2018-Nov-17 12:15 037 1 17.8
2018-Nov-17 12:00 038 3 17.8
2018-Nov-17 11:45 036 2 17.8
2018-Nov-17 11:30 035 3 17.2
2018-Nov-17 11:15 041 2 17.2
2018-Nov-17 11:00 042 3 16.7
2018-Nov-17 10:45 050 3 16.7
2018-Nov-17 10:30 052 2 16.1
2018-Nov-17 10:17 029 1 15.6
2018-Nov-17 10:03 029 0 15.0
2018-Nov-17 09:46 029 2 13.3
2018-Nov-17 09:31 029 2 12.8
2018-Nov-17 09:16 029 0 12.8
2018-Nov-17 09:01 029 1 11.7
2018-Nov-17 08:46 024 1 11.1
2018-Nov-17 08:30 024 0 9.4
2018-Nov-17 08:15 021 8.9
2018-Nov-17 08:01 023 0 8.3
2018-Nov-17 07:45 046 0 7.8
2018-Nov-17 07:30 046 7.2
2018-Nov-17 07:15 046 7.2
2018-Nov-17 07:00 046 6.7
2018-Nov-17 06:45 046 7.2
2018-Nov-17 06:30 046 7.2
2018-Nov-17 06:15 046 7.8
2018-Nov-17 06:00 046 0 8.3
2018-Nov-17 05:45 047 0 7.8
2018-Nov-17 05:30 050 0 7.8
2018-Nov-17 05:15 051 0 8.3
2018-Nov-17 05:00 050 0 7.8
2018-Nov-17 04:45 047 0 7.8
2018-Nov-17 04:30 041 7.2
2018-Nov-17 04:15 044 0 7.8
2018-Nov-17 04:01 044 2 7.2
2018-Nov-17 03:47 044 1 7.2
2018-Nov-17 03:32 044 1 7.8
2018-Nov-17 03:16 044 7.2
2018-Nov-17 03:01 044 1 7.8
2018-Nov-17 02:46 056 1 7.8
2018-Nov-17 02:31 050 3 7.8
2018-Nov-17 02:15 050 2 8.3
2018-Nov-17 02:02 054 2 8.3
2018-Nov-17 01:46 052 2 8.9
2018-Nov-17 01:31 052 3 8.9
2018-Nov-17 01:16 050 1 8.9
2018-Nov-17 01:01 053 2 8.9
2018-Nov-17 00:46 040 2 8.9
2018-Nov-17 00:31 052 2 8.9
2018-Nov-17 00:16 048 1 8.9
2018-Nov-17 00:01 054 1 8.9
2018-Nov-16 23:45 058 1 8.9
2018-Nov-16 23:31 056 2 8.9
2018-Nov-16 23:16 054 1 8.9
2018-Nov-16 23:00 048 1 9.4
2018-Nov-16 22:45 051 2 9.4
2018-Nov-16 22:31 051 2 9.4
2018-Nov-16 22:15 051 2 9.4
2018-Nov-16 22:01 051 2 9.4
2018-Nov-16 21:45 052 3 9.4
2018-Nov-16 21:31 052 2 10.0
2018-Nov-16 21:16 050 2 10.0
2018-Nov-16 21:00 061 2 10.0
2018-Nov-16 20:46 061 4 10.6
2018-Nov-16 20:31 054 2 10.0
2018-Nov-16 20:15 048 2 10.0
2018-Nov-16 20:00 048 2 10.0
2018-Nov-16 19:45 048 1 10.0
2018-Nov-16 19:31 048 2 10.6
2018-Nov-16 19:16 049 0 10.6
2018-Nov-16 19:00 049 1 10.6
2018-Nov-16 18:45 048 0 10.6
2018-Nov-16 18:30 048 2 10.6
2018-Nov-16 18:15 048 1 11.1
2018-Nov-16 18:00 048 2 11.1
2018-Nov-16 17:46 048 4 11.1
2018-Nov-16 17:31 056 4 11.7
2018-Nov-16 17:15 063 5 12.2
2018-Nov-16 17:00 017 4 12.2
2018-Nov-16 16:45 295 1 11.7
2018-Nov-16 16:30 295 3 11.7
2018-Nov-16 16:15 290 5 11.1
2018-Nov-16 16:00 279 6 11.7
2018-Nov-16 15:45 273 7 11.7
2018-Nov-16 15:30 281 6 12.8
2018-Nov-16 15:15 281 5 13.9
2018-Nov-16 15:00 310 5 16.7
2018-Nov-16 14:45 320 2 17.2
2018-Nov-16 14:30 322 1 17.2
2018-Nov-16 14:15 322 1 17.8
2018-Nov-16 14:00 322 0 17.8
2018-Nov-16 13:45 322 0 17.8
2018-Nov-16 13:30 322 0 17.8
2018-Nov-16 13:15 322 1 17.8
2018-Nov-16 13:00 322 2 17.8
2018-Nov-16 12:45 322 3 17.8
2018-Nov-16 12:30 331 1 17.2
2018-Nov-16 12:16 342 1 16.7
2018-Nov-16 12:01 343 1 16.1
2018-Nov-16 11:46 017 1 16.1
2018-Nov-16 11:31 044 3 15.6
2018-Nov-16 11:16 047 3 15.0
2018-Nov-16 11:00 050 15.0
2018-Nov-16 10:45 050 0 14.4
2018-Nov-16 10:30 050 0 13.9
2018-Nov-16 10:15 050 1 13.9
2018-Nov-16 10:00 048 0 13.9
2018-Nov-16 09:45 048 0 13.3
2018-Nov-16 09:30 048 2 12.2
2018-Nov-16 09:15 048 3 11.1
2018-Nov-16 09:00 048 3 10.6
2018-Nov-16 08:47 048 2 10.0
2018-Nov-16 08:31 048 2 9.4
2018-Nov-16 08:17 048 1 8.9
2018-Nov-16 08:02 048 0 8.3
2018-Nov-16 07:46 048 2 7.8
2018-Nov-16 07:32 054 1 7.8
2018-Nov-16 07:17 041 1 7.2
2018-Nov-16 07:02 050 2 7.2
2018-Nov-16 06:46 058 3 7.2
2018-Nov-16 06:30 056 2 7.2
2018-Nov-16 06:15 049 1 7.2
2018-Nov-16 06:01 052 1 7.2
2018-Nov-16 05:46 048 1 7.2
2018-Nov-16 05:30 056 1 7.2
2018-Nov-16 05:15 053 1 7.2
2018-Nov-16 05:01 048 1 7.8
2018-Nov-16 04:45 046 0 7.8
2018-Nov-16 04:30 050 1 7.8
2018-Nov-16 04:16 050 1 7.2
2018-Nov-16 04:00 050 1 7.8
2018-Nov-16 03:45 046 1 7.8
2018-Nov-16 03:30 052 1 7.8
2018-Nov-16 03:15 048 1 7.8
2018-Nov-16 03:00 044 0 7.8
2018-Nov-16 02:45 044 1 8.3
2018-Nov-16 02:30 048 0 8.9
2018-Nov-16 02:15 048 0 8.9
2018-Nov-16 02:00 048 0 8.9
2018-Nov-16 01:45 050 0 8.9
2018-Nov-16 01:30 050 1 8.9
2018-Nov-16 01:15 058 3 8.9
2018-Nov-16 01:00 298 4 8.9
2018-Nov-16 00:45 298 4 9.4
2018-Nov-16 00:30 297 4 9.4
2018-Nov-16 00:17 295 3 9.4
2018-Nov-16 00:02 293 2 9.4
2018-Nov-15 23:46 292 2 9.4
2018-Nov-15 23:31 292 1 10.0
2018-Nov-15 23:16 292 2 10.0
2018-Nov-15 23:01 288 2 10.0
2018-Nov-15 22:46 285 0 10.6
2018-Nov-15 22:31 285 10.6
2018-Nov-15 22:16 285 0 10.6
2018-Nov-15 22:01 285 1 11.1
2018-Nov-15 21:46 285 2 11.1
2018-Nov-15 21:32 284 11.1
2018-Nov-15 21:16 284 11.1
2018-Nov-15 21:01 284 11.1
2018-Nov-15 20:47 284 11.7
2018-Nov-15 20:30 284 11.7
2018-Nov-15 20:16 284 11.7
2018-Nov-15 20:01 284 11.7
2018-Nov-15 19:46 284 11.7
2018-Nov-15 19:31 284 11.1
2018-Nov-15 19:16 284 11.1
2018-Nov-15 19:01 284 11.1
2018-Nov-15 18:47 284 11.1
2018-Nov-15 18:30 284 11.1
2018-Nov-15 18:15 284 0 11.1
2018-Nov-15 18:01 284 0 11.7
2018-Nov-15 17:46 284 1 11.7
2018-Nov-15 17:31 284 11.7
2018-Nov-15 17:15 284 0 12.2
2018-Nov-15 17:01 284 1 12.2
2018-Nov-15 16:46 284 3 11.7
2018-Nov-15 16:30 069 0 12.2
2018-Nov-15 16:15 069 4 13.3
2018-Nov-15 16:00 255 3 16.1